Location: Santa Clara
(37.3540°N, 121.9540°W)
Time: 23:26:17
(UTC-07:00)

Envisat - Visible Passes

Search period start: 17 May 2024 00:00
Search period end: 27 May 2024 00:00
Orbit: 762 x 764 km, 98.3° (Epoch: 17 May)

Date Brightness Start Highest point End Pass type
(mag) Time Alt. Az. Time Alt. Az. Time Alt. Az.
17 May 5.1 03:25:12 10° NE 03:28:58 21° E 03:32:43 10° SE visible
17 May 3.6 05:03:20 10° N 05:08:03 40° WNW 05:12:45 10° SW visible
18 May 3.0 04:25:44 10° NNE 04:30:49 86° ESE 04:35:13 14° SSW visible
19 May 4.3 03:48:44 10° NNE 03:53:24 36° E 03:57:28 13° SSE visible
20 May 5.4 03:12:51 10° ENE 03:15:47 15° E 03:18:41 10° SE visible
20 May 3.2 04:50:06 10° N 04:55:02 54° WNW 04:59:52 10° SSW visible
21 May 3.3 04:12:41 10° NNE 04:17:44 64° ESE 04:22:06 14° S visible
22 May 4.7 03:35:58 10° NE 03:40:15 27° E 03:44:21 11° SSE visible
22 May 3.9 05:14:43 10° N 05:19:10 31° WNW 05:23:35 10° SW visible
23 May 5.6 03:01:12 10° ENE 03:02:32 11° E 03:03:54 10° ESE visible
23 May 3.0 04:36:55 10° N 04:41:59 73° WNW 04:46:44 12° SSW visible
24 May 3.8 03:59:43 10° NNE 04:04:37 47° E 04:08:57 13° S visible
25 May 5.1 03:23:21 10° NE 03:27:04 20° E 03:30:44 10° SE visible
25 May 3.6 05:01:24 10° N 05:06:09 42° WNW 05:10:53 10° SW visible
26 May 3.0 04:23:49 10° NNE 04:28:55 84° ESE 04:33:34 12° SSW visible
